Location: Rodanthe
(35.5920°N, 75.4670°W)
Time: 17:59:13
(UTC-05:00)

ISS - All Passes

Search period start: 27 January 2015 00:00
Search period end: 06 February 2015 00:00
Orbit: 402 x 410 km, 51.6° (Epoch: 27 January)

Date Brightness Start Highest point End Pass type
(mag) Time Alt. Az. Time Alt. Az. Time Alt. Az.
27 Jan - 04:01:10 10° N 04:02:28 12° NNE 04:03:51 10° NE visible
27 Jan - 05:36:12 10° NW 05:39:30 76° NE 05:42:48 10° SE visible
27 Jan - 22:14:08 10° WSW 22:17:23 63° NW 22:20:39 10° NE night (unlit)
27 Jan - 23:53:31 10° NW 23:54:29 11° NNW 23:55:21 10° N night (unlit)
28 Jan - 04:44:33 10° NNW 04:47:39 37° NE 04:50:46 10° ESE visible
28 Jan - 06:21:40 10° W 06:23:59 17° SW 06:26:13 10° S visible
28 Jan - 21:22:22 10° SW 21:25:35 59° SE 21:28:49 10° NE night (unlit)
28 Jan - 23:00:12 10° WNW 23:02:22 16° NNW 23:04:30 10° NNE night (unlit)
29 Jan - 03:53:03 10° NNW 03:55:41 21° NNE 03:58:20 10° E visible
29 Jan - 05:29:13 10° WNW 05:32:16 35° SW 05:35:19 10° SSE visible
29 Jan - 20:31:02 10° S 20:33:50 27° SE 20:36:40 10° ENE night (unlit)
29 Jan - 22:07:30 10° W 22:10:19 26° NNW 22:13:08 10° NNE night (unlit)
30 Jan - 03:01:47 10° N 03:03:36 14° NNE 03:05:27 10° ENE night (unlit)
30 Jan - 04:37:11 10° NW 04:40:30 80° SW 04:43:47 10° SE visible
30 Jan - 19:40:31 10° SSE 19:42:06 13° SE 19:43:49 10° E night (unlit)
30 Jan - 21:15:10 10° WSW 21:18:20 47° NW 21:21:32 10° NE night (unlit)
31 Jan - 03:45:23 10° NW 03:48:36 48° NE 03:51:49 10° ESE night (unlit)
31 Jan - 05:23:09 10° W 05:24:50 13° SW 05:26:25 10° SSW visible
31 Jan - 20:23:10 10° SW 20:26:26 81° SE 20:29:43 10° NE night (unlit)
31 Jan - 22:01:33 10° WNW 22:03:20 14° NNW 22:05:04 10° N night (unlit)
01 Feb - 02:53:45 10° NNW 02:56:36 26° NNE 02:59:27 10° E night (unlit)
01 Feb - 04:30:14 10° WNW 04:33:05 26° SW 04:35:53 10° S night (unlit)
01 Feb - 19:31:35 10° SSW 19:34:35 36° SE 19:37:39 10° ENE visible
01 Feb - 21:08:36 10° W 21:11:11 21° NNW 21:13:45 10° NNE night (unlit)
02 Feb - 02:02:19 10° NNW 02:04:28 16° NNE 02:06:41 10° ENE night (unlit)
02 Feb - 03:37:59 10° NW 03:41:15 57° SW 03:44:29 10° SE night (unlit)
02 Feb - 18:40:34 10° S 18:42:47 17° SE 18:45:04 10° E visible
02 Feb - 20:16:02 10° WSW 20:19:06 36° NW 20:22:10 10° NNE visible
03 Feb - 01:11:18 10° N 01:12:14 11° NNE 01:13:16 10° NE night (unlit)
03 Feb - 02:46:02 10° NW 02:49:19 65° NE 02:52:35 10° ESE night (unlit)
03 Feb - 19:23:50 10° SW 19:27:05 74° NW 19:30:22 10° NE visible
03 Feb - 21:02:49 10° NW 21:04:06 12° NNW 21:05:19 10° N night (unlit)
04 Feb - 01:54:16 10° NNW 01:57:16 32° NE 02:00:18 10° ESE night (unlit)
04 Feb - 03:31:07 10° W 03:33:39 20° SW 03:36:07 10° S night (unlit)
04 Feb - 18:31:59 10° SSW 18:35:08 49° SE 18:38:19 10° ENE visible
04 Feb - 20:09:31 10° WNW 20:11:50 18° NNW 20:14:08 10° NNE visible
05 Feb - 01:02:40 10° NNW 01:05:07 19° NNE 01:07:37 10° E night (unlit)
05 Feb - 02:38:37 10° WNW 02:41:46 42° SW 02:44:53 10° SSE night (unlit)
05 Feb - 17:40:37 10° S 17:43:14 23° SE 17:45:54 10° ENE daylight
05 Feb - 19:16:45 10° W 19:19:38 29° NW 19:22:33 10° NNE visible
